CW2840 Weather Reports


time (UTC)temp
C
wind
direction
speed
KPH
gust
KPH
rain 1hr
cm
rain 24hr
cm
rain mn
cm
humidity
%
barometer
mb
20260901022701 30 147 3.2 4.8 0.00 0.00 0.00 66 1014.0
20260901021159 31 147 3.2 8.0 0.00 0.00 0.00 65 1013.8
20260901015701 31 147 4.8 8.0 0.00 0.00 0.00 64 1013.7
20260901014159 31 149 3.2 11.3 0.00 0.00 0.00 63 1013.6
20260901012700 31 144 4.8 8.0 0.00 0.00 0.00 61 1013.5
20260901011159 32 133 3.2 14.5 0.00 0.00 0.00 59 1013.5
20260901005700 32 159 4.8 14.5 0.00 0.00 0.00 58 1013.4
20260901004907 32 151 4.8 14.5 0.00 0.00 0.00 57 1013.4
20260901002659 32 118 4.8 14.5 0.00 0.00 0.00 55 1013.6
20260901001158 33 199 4.8 20.9 0.00 0.00 0.00 54 1013.6
20260831235658 33 151 6.4 17.7 0.00 0.00 0.00 54 1013.7
20260831234156 33 124 3.2 22.5 0.00 0.00 0.00 54 1013.6
20260831232657 33 158 9.7 17.7 0.00 0.00 0.00 53 1013.6
20260831231155 33 165 8.0 20.9 0.00 0.00 0.00 52 1013.6
20260831225657 34 123 6.4 22.5 0.00 0.00 0.00 50 1013.5
20260831224154 34 117 9.7 20.9 0.00 0.00 0.00 50 1013.6
20260831222656 35 165 12.9 29.0 0.00 0.00 0.00 50 1013.5
20260831221154 35 166 6.4 25.7 0.00 0.00 0.00 50 1013.5
20260831215653 35 144 6.4 25.7 0.00 0.00 0.00 49 1013.5
20260831214851 35 166 9.7 32.2 0.00 0.00 0.00 51 1013.7
20260831212655 34 159 14.5 35.4 0.00 0.00 0.00 53 1013.9
20260831211153 34 179 20.9 38.6 0.00 0.00 0.00 52 1013.9
20260831210358 34 138 11.3 29.0 0.00 0.00 0.00 52 1014.1
20260831204152 35 121 6.4 17.7 0.00 0.00 0.00 47 1014.2
20260831203404 36 113 8.0 17.7 0.00 0.00 0.00 45 1014.3
20260831201152 36 109 3.2 14.5 0.00 0.00 0.00 47 1014.5
20260831195653 34 0 4.8 17.7 0.00 0.00 0.00 47 1014.7
20260831194841 36 161 6.4 20.9 0.00 0.00 0.00 44 1014.9
20260831192652 36 172 8.0 14.5 0.00 0.00 0.00 45 1015.0
20260831191151 35 186 3.2 17.7 0.00 0.00 0.00 46 1015.4
20260831185652 35 172 4.8 14.5 0.00 0.00 0.00 45 1015.5
20260831184149 34 58 3.2 25.7 0.00 0.00 0.00 49 1015.7
20260831182651 35 166 8.0 17.7 0.00 0.00 0.00 49 1015.8
20260831181149 34 175 8.0 17.7 0.00 0.00 0.00 53 1016.2
20260831175650 33 125 3.2 14.5 0.00 0.00 0.00 51 1016.3
20260831174149 33 85 3.2 17.7 0.00 0.00 0.00 56 1016.5
20260831172650 33 90 4.8 11.3 0.00 0.00 0.00 55 1016.7
20260831171848 33 186 4.8 11.3 0.00 0.00 0.00 54 1016.8
20260831165649 33 117 8.0 17.7 0.00 0.00 0.00 54 1016.9
20260831164837 32 20 1.6 14.5 0.00 0.00 0.00 59 1017.0
20260831162647 32 348 8.0 14.5 0.00 0.00 0.00 60 1017.0
20260831161147 32 164 8.0 11.3 0.00 0.00 0.00 62 1017.1
20260831155646 31 172 6.4 11.3 0.00 0.00 0.00 65 1017.2
20260831154146 31 155 4.8 11.3 0.00 0.00 0.00 59 1017.1
20260831152645 31 350 4.8 11.3 0.00 0.00 0.00 63 1016.9
20260831151145 30 99 1.6 14.5 0.00 0.00 0.00 70 1016.9
20260831145645 30 72 4.8 11.3 0.00 0.00 0.00 72 1016.9
20260831144835 29 10 3.2 11.3 0.00 0.00 0.00 73 1016.9
20260831142644 29 138 1.6 8.0 0.00 0.00 0.00 77 1016.8
20260831141144 28 90 4.8 8.0 0.00 0.00 0.00 80 1016.7
20260831135643 27 92 3.2 11.3 0.00 0.00 0.00 82 1016.6
20260831134144 26 120 3.2 8.0 0.00 0.00 0.00 84 1016.6
20260831132644 26 121 4.8 8.0 0.00 0.00 0.00 85 1016.5
20260831131143 25 124 3.2 8.0 0.00 0.00 0.00 86 1016.2
20260831125643 25 165 3.2 4.8 0.00 0.00 0.00 87 1016.2
20260831124142 25 165 1.6 4.8 0.00 0.00 0.00 87 1016.2
20260831122641 25 166 1.6 4.8 0.00 0.00 0.00 87 1015.9
20260831121842 25 165 0.0 3.2 0.00 0.00 0.00 87 1015.7
20260831115644 25 166 0.0 3.2 0.00 0.00 0.00 87 1015.5
20260831114140 25 165 0.0 3.2 0.00 0.00 0.00 87 1015.4
20260831112641 25 165 0.0 3.2 0.00 0.00 0.00 87 1015.4
20260831111140 25 165 0.0 3.2 0.00 0.00 0.00 86 1015.4
20260831110340 25 165 0.0 0.0 0.00 0.00 0.00 86 1015.3
20260831104139 25 166 0.0 0.0 0.00 0.00 0.00 86 1015.2
20260831102640 25 165 0.0 3.2 0.00 0.00 0.00 85 1015.0
20260831101139 25 166 0.0 3.2 0.00 0.00 0.00 85 1015.4
20260831095639 25 165 0.0 0.0 0.00 0.00 0.00 85 1015.4
20260831094138 25 166 0.0 0.0 0.00 0.00 0.00 85 1015.3
20260831092638 25 166 0.0 0.0 0.00 0.00 0.00 84 1015.2
20260831091138 26 166 0.0 0.0 0.00 0.00 0.00 84 1015.2
20260831085638 26 166 0.0 0.0 0.00 0.00 0.00 83 1015.2
20260831084137 26 166 0.0 0.0 0.00 0.00 0.00 83 1015.2
20260831083336 26 165 0.0 0.0 0.00 0.00 0.00 82 1015.3
20260831081136 26 166 0.0 3.2 0.00 0.00 0.00 81 1015.3
20260831075636 26 166 0.0 0.0 0.00 0.00 0.00 80 1015.3
20260831074135 27 166 0.0 3.2 0.00 0.00 0.00 79 1015.5
20260831072634 27 166 1.6 4.8 0.00 0.00 0.00 79 1015.5
20260831071132 27 165 0.0 3.2 0.00 0.00 0.00 78 1015.5
20260831071025 27 165 0.0 4.8 0.00 0.00 0.00 77 1015.4
20260831064132 27 165 0.0 3.2 0.00 0.00 0.00 76 1015.5
20260831062631 28 165 0.0 8.0 0.00 0.00 0.00 76 1015.5
20260831061132 28 165 3.2 11.3 0.00 0.00 0.00 75 1015.5
20260831055632 28 169 3.2 11.3 0.00 0.00 0.00 75 1015.6
20260831054132 28 176 4.8 17.7 0.00 0.00 0.00 74 1015.5
20260831052632 28 154 3.2 14.5 0.00 0.00 0.00 73 1015.5
20260831052530 28 183 1.6 11.3 0.00 0.00 0.00 72 1015.4
20260831045630 28 148 3.2 14.5 0.00 0.00 0.00 71 1015.2
20260831044130 28 137 4.8 17.7 0.00 0.00 0.00 70 1015.2
20260831042631 28 162 3.2 11.3 0.00 0.00 0.00 69 1015.1
20260831041131 28 165 1.6 11.3 0.00 0.00 0.00 69 1015.0
20260831041007 29 168 3.2 8.0 0.00 0.00 0.00 67 1014.9
20260831034131 29 144 3.2 8.0 0.00 0.00 0.00 66 1014.8
20260831032630 30 151 4.8 14.5 0.00 0.00 0.00 64 1014.8
20260831031130 30 152 8.0 20.9 0.00 0.00 0.00 63 1014.6
20260831025629 30 137 4.8 17.7 0.00 0.00 0.00 61 1014.3